This demonstration page uses our WeatherBlox Daily Observations layout. Learn more.

Left ArrowRight Arrow

38.20091, -84.87328

Hourly Observations for February 20, 2020

Temp ( °F °C ) Dew Point ( °F °C ) Humidity (%) Winds ( mph kmh ) Pressure ( in mb ) Visibility ( mi km ) Precip ( " mm )
12:53 am 00:53 Clear 36 2.2 21 -6.1 55 55 N 7 11 30.45 1031 10 16 0.00 0.00
1:53 am 01:53 Clear 35 1.7 21 -6.1 57 57 NE 7 11 30.45 1031 10 16 0.00 0.00
2:53 am 02:53 Clear 34 1.1 21 -6.1 59 59 NNE 6 9 30.45 1031 10 16 0.00 0.00
3:53 am 03:53 Clear 34 1.1 21 -6.1 59 59 NNE 7 11 30.45 1031 10 16 0.00 0.00
4:53 am 04:53 Clear 33 0.6 22 -5.6 64 64 NNE 5 7 30.45 1031 10 16 0.00 0.00
5:53 am 05:53 Mostly Clear 33 0.6 22 -5.6 64 64 NNE 5 7 30.46 1032 10 16 0.00 0.00
6:53 am 06:53 Mostly Cloudy 33 0.6 22 -5.6 64 64 NNE 7 11 30.48 1032 10 16 0.00 0.00
7:53 am 07:53 Mostly Sunny 32 0 21 -6.1 64 64 N 10 17 30.50 1033 10 16 0.00 0.00
8:53 am 08:53 Mostly Cloudy 32 0 21 -6.1 64 64 NNE 7 11 30.53 1034 10 16 0.00 0.00
9:53 am 09:53 Sunny 33 0.6 21 -6.1 61 61 NNE 12 19 30.53 1034 10 16 0.00 0.00
10:53 am 10:53 Sunny 34 1.1 20 -6.7 56 56 NNE 13 20 30.53 1034 10 16 0.00 0.00
11:53 am 11:53 Sunny 36 2.2 18 -7.8 48 48 NNE 10 17 30.53 1034 10 16 0.00 0.00
12:53 pm 12:53 Sunny 39 3.9 19 -7.2 45 45 NNE 10 17 30.51 1033 10 16 0.00 0.00
1:38 pm 13:38 Sunny 38 3.3 18 -7.8 44 44 N 10 17 30.51 1033 10 16 0.00 0.00
1:53 pm 13:53 Sunny 38 3.3 17 -8.3 43 43 NNE 12 19 30.49 1033 10 16 0.00 0.00
2:53 pm 14:53 Sunny 39 3.9 16 -8.9 39 39 N 8 13 30.47 1032 10 16 0.00 0.00
3:53 pm 15:53 Sunny 38 3.3 16 -8.9 41 41 N 10 17 30.47 1032 10 16 0.00 0.00
4:53 pm 16:53 Sunny 37 2.8 17 -8.3 44 44 NNE 14 22 30.48 1032 10 16 0.00 0.00
5:53 pm 17:53 Sunny 35 1.7 16 -8.9 46 46 N 10 17 30.50 1033 10 16 0.00 0.00
6:53 pm 18:53 Clear 31 -0.6 16 -8.9 54 54 N 13 20 30.53 1034 10 16 0.00 0.00
7:53 pm 19:53 Clear 29 -1.7 14 -10 54 54 N 8 13 30.55 1035 10 16 0.00 0.00
8:53 pm 20:53 Clear 27 -2.8 12 -11.1 53 53 N 12 19 30.58 1036 10 16 0.00 0.00
9:53 pm 21:53 Clear 26 -3.3 10 -12.2 51 51 N 12 19 30.60 1036 10 16 0.00 0.00
10:53 pm 22:53 Clear 25 -3.9 10 -12.2 53 53 N 7 11 30.61 1037 10 16 0.00 0.00
11:53 pm 23:53 Clear 24 -4.4 10 -12.2 55 55 N 6 9 30.62 1037 10 16 0.00 0.00

Powered by AerisWeather